Powrót do katalogu

DELTA 1 R/B

AktywnySSO
NORAD 4322·ROCKET BODY·🇺🇸 United States

Wystrzelony Jan 23, 1970 z Vandenberg Space Force Base

Loading…

Następne Przeloty (najbliższe 24 godziny)

TLE

ŚwieżeSource: Space-Track

Epoka: Sep 14, 2026, 11:59 UTC

1 04322U 70008C   26257.49994269 -.00000038  00000-0  25582-4 0  9998
2 04322 101.3390 255.9443 0028533 119.8238  47.5042 12.51931121588105

Śledź DELTA 1 R/B w czasie rzeczywistym z AllMySat

Download on the App Store